Location: Newark
(39.6867°N, 100.6772°W)
Time: 09:04:54
(UTC+00:00)

Transit 2A - Pass Details

Date: 28 October 2019
Orbit: 601 x 957 km, 66.7° (Epoch: 12 November)

Event Time Altitude Azimuth Distance (km) Brightness Sun altitude
Rises 00:43:26 0° 229° (SW) 3,343 10.3 -11.4°
Reaches altitude 10° 00:46:08 10° 237° (WSW) 2,353 9.6 -12.0°
Maximum altitude 00:51:05 37° 304° (NW) 1,129 7.3 -12.9°
Drops below altitude 10° 00:55:39 10° 13° (NNE) 2,149 8.1 -13.8°
Sets 00:58:01 0° 22° (NNE) 3,017 8.8 -14.2°
